{"data":{"norad_id":56138,"intl_designator":"2023-046AY","name":"STARLINK-4774","alt_names":[],"object_type":"PAYLOAD","status":"ACTIVE","operator":null,"country":"US","launch_date":"2023-03-29","launch_site_code":"AFETR","launch_vehicle":null,"mission":null,"orbit_class":"UNKNOWN","rcs_meters":null,"size_class":null,"mass_kg":null,"dimensions":null,"purposes":["comms"],"wikipedia_slug":null,"has_3d_model":false,"image_url":null,"decayed_at":null,"tle_current":{"epoch":"2026-09-20T21:44:13.992000Z","epoch_age_seconds":73755,"freshness":"FRESH","line1":"1 56138U 23046AY  26263.90571750 -.00008894  00000+0 -31355-3 0  9991","line2":"2 56138  43.0002 124.6986 0000329 254.1115 105.9700 15.27633677192059","mean_motion":15.27633677,"eccentricity":3.29e-5,"inclination_deg":43.0002,"raan_deg":124.6986,"arg_perigee_deg":254.1115,"mean_anomaly_deg":105.97,"bstar":-0.00031355,"rev_number":19205,"period_min":94.263436429858,"perigee_km":482.66264476302,"apogee_km":483.11410023253,"semimajor_km":6861.0253724978,"source":"CELESTRAK","updated_at":"2026-09-21T09:00:33.389379Z"}}}